owner,sensor,date,latitude,longitude,air_pressure(mBar),qcFlag 
TABS,ioos:station:wmo:42043:1,2008-06-01T00:00:00Z,28.9818,-94.9186,1014.28,11111222 
TABS,ioos:station:wmo:42043:1,2008-06-01T00:30:00Z,28.9818,-94.9186,1014.35,11111222 
TABS,ioos:station:wmo:42043:1,2008-06-01T01:00:00Z,28.9818,-94.9186,1014.46,11111222 
TABS,ioos:station:wmo:42043:1,2008-06-01T01:30:00Z,28.9818,-94.9186,1014.62,11111222 
TABS,ioos:station:wmo:42043:1,2008-06-01T02:00:00Z,28.9818,-94.9186,1014.86,11111222 
TABS,ioos:station:wmo:42043:1,2008-06-01T02:30:00Z,28.9818,-94.9186,1015.03,11111222 
TABS,ioos:station:wmo:42043:1,2008-06-01T03:00:00Z,28.9818,-94.9186,1015.49,11111222 
TABS,ioos:station:wmo:42043:1,2008-06-01T03:30:00Z,28.9818,-94.9186,1015.77,11111222 
TABS,ioos:station:wmo:42043:1,2008-06-01T04:00:00Z,28.9818,-94.9186,1015.81,11111222 
TABS,ioos:station:wmo:42043:1,2008-06-01T04:30:00Z,28.9818,-94.9186,1015.62,11111222 
TABS,ioos:station:wmo:42043:1,2008-06-01T05:00:00Z,28.9818,-94.9186,1015.47,11111222 
TABS,ioos:station:wmo:42043:1,2008-06-01T05:30:00Z,28.9818,-94.9186,1015.03,11111222 
TABS,ioos:station:wmo:42043:1,2008-06-01T06:00:00Z,28.9818,-94.9186,1014.88,11111222 
TABS,ioos:station:wmo:42043:1,2008-06-01T06:30:00Z,28.9818,-94.9186,1014.69,11111222 
TABS,ioos:station:wmo:42043:1,2008-06-01T07:00:00Z,28.9818,-94.9186,1014.18,11111222 
TABS,ioos:station:wmo:42043:1,2008-06-01T07:30:00Z,28.9818,-94.9186,1013.98,11111222 
TABS,ioos:station:wmo:42043:1,2008-06-01T08:00:00Z,28.9818,-94.9186,1013.82,11111222 
TABS,ioos:station:wmo:42043:1,2008-06-01T08:30:00Z,28.9818,-94.9186,1013.84,11111222 
TABS,ioos:station:wmo:42043:1,2008-06-01T09:00:00Z,28.9818,-94.9186,1013.79,11111222 
TABS,ioos:station:wmo:42043:1,2008-06-01T09:30:00Z,28.9818,-94.9186,1013.95,11111222 
TABS,ioos:station:wmo:42043:1,2008-06-01T10:00:00Z,28.9818,-94.9186,1014.25,11111222 
TABS,ioos:station:wmo:42043:1,2008-06-01T10:30:00Z,28.9818,-94.9186,1014.06,11111222 
TABS,ioos:station:wmo:42043:1,2008-06-01T11:00:00Z,28.9818,-94.9186,1014.21,11111222 
TABS,ioos:station:wmo:42043:1,2008-06-01T11:30:00Z,28.9818,-94.9186,1014.38,11111222 
TABS,ioos:station:wmo:42043:1,2008-06-01T12:00:00Z,28.9818,-94.9186,1014.92,11111222 
TABS,ioos:station:wmo:42043:1,2008-06-01T12:30:00Z,28.9818,-94.9186,1015.17,11111222 
TABS,ioos:station:wmo:42043:1,2008-06-01T13:00:00Z,28.9818,-94.9186,1015.47,11111222 
TABS,ioos:station:wmo:42043:1,2008-06-01T13:30:00Z,28.9818,-94.9186,1015.73,11111222 
TABS,ioos:station:wmo:42043:1,2008-06-01T14:00:00Z,28.9818,-94.9186,1015.71,11111222 
TABS,ioos:station:wmo:42043:1,2008-06-01T14:30:00Z,28.9818,-94.9186,1016.02,11111222 
TABS,ioos:station:wmo:42043:1,2008-06-01T15:00:00Z,28.9818,-94.9186,1016.24,11111222 
TABS,ioos:station:wmo:42043:1,2008-06-01T15:30:00Z,28.9818,-94.9186,1016.39,11111222 
TABS,ioos:station:wmo:42043:1,2008-06-01T16:00:00Z,28.9818,-94.9186,1015.99,11111222 
TABS,ioos:station:wmo:42043:1,2008-06-01T16:30:00Z,28.9818,-94.9186,1016.25,11111222 
TABS,ioos:station:wmo:42043:1,2008-06-01T17:00:00Z,28.9818,-94.9186,1016.49,11111222 
TABS,ioos:station:wmo:42043:1,2008-06-01T17:30:00Z,28.9818,-94.9186,1016.57,11111222 
TABS,ioos:station:wmo:42043:1,2008-06-01T18:00:00Z,28.9818,-94.9186,1016.65,11111222 
TABS,ioos:station:wmo:42043:1,2008-06-01T18:30:00Z,28.9818,-94.9186,1016.37,11111222 
TABS,ioos:station:wmo:42043:1,2008-06-01T19:00:00Z,28.9818,-94.9186,1016.1,11111222 
TABS,ioos:station:wmo:42043:1,2008-06-01T19:30:00Z,28.9818,-94.9186,1015.74,11111222 
TABS,ioos:station:wmo:42043:1,2008-06-01T20:00:00Z,28.9818,-94.9186,1015.55,11111222 
TABS,ioos:station:wmo:42043:1,2008-06-01T20:30:00Z,28.9818,-94.9186,1015.36,11111222 
TABS,ioos:station:wmo:42043:1,2008-06-01T21:00:00Z,28.9818,-94.9186,1015.27,11111222 
TABS,ioos:station:wmo:42043:1,2008-06-01T21:30:00Z,28.9818,-94.9186,1015.11,11111222 
TABS,ioos:station:wmo:42043:1,2008-06-01T22:00:00Z,28.9818,-94.9186,1014.75,11111222 
TABS,ioos:station:wmo:42043:1,2008-06-01T22:30:00Z,28.9818,-94.9186,1014.53,11111222 
TABS,ioos:station:wmo:42043:1,2008-06-01T23:00:00Z,28.9818,-94.9186,1014.56,11111222 
TABS,ioos:station:wmo:42043:1,2008-06-01T23:30:00Z,28.9818,-94.9186,1014.42,11111222 
TABS,ioos:station:wmo:42043:1,2008-06-02T00:00:00Z,28.9818,-94.9186,1013.93,11111222 
TABS,ioos:station:wmo:42043:1,2008-06-02T00:30:00Z,28.9818,-94.9186,1014.15,11111222 
TABS,ioos:station:wmo:42043:1,2008-06-02T01:00:00Z,28.9818,-94.9186,1014.02,11111222 
TABS,ioos:station:wmo:42043:1,2008-06-02T01:30:00Z,28.9818,-94.9186,1014.08,11111222 
TABS,ioos:station:wmo:42043:1,2008-06-02T02:00:00Z,28.9818,-94.9186,1014.38,11111222 
TABS,ioos:station:wmo:42043:1,2008-06-02T02:30:00Z,28.9818,-94.9186,1014.53,11111222 
TABS,ioos:station:wmo:42043:1,2008-06-02T03:00:00Z,28.9818,-94.9186,1014.94,11111222 
TABS,ioos:station:wmo:42043:1,2008-06-02T03:30:00Z,28.9818,-94.9186,1015.14,11111222 
TABS,ioos:station:wmo:42043:1,2008-06-02T04:00:00Z,28.9818,-94.9186,1015.23,11111222 
TABS,ioos:station:wmo:42043:1,2008-06-02T04:30:00Z,28.9818,-94.9186,1015.42,11111222 
TABS,ioos:station:wmo:42043:1,2008-06-02T05:00:00Z,28.9818,-94.9186,1015.45,11111222 
TABS,ioos:station:wmo:42043:1,2008-06-02T05:30:00Z,28.9818,-94.9186,1015.15,11111222 
TABS,ioos:station:wmo:42043:1,2008-06-02T06:00:00Z,28.9818,-94.9186,1015.09,11111222 
TABS,ioos:station:wmo:42043:1,2008-06-02T06:30:00Z,28.9818,-94.9186,1014.85,11111222 
TABS,ioos:station:wmo:42043:1,2008-06-02T07:00:00Z,28.9818,-94.9186,1014.62,11111222 
TABS,ioos:station:wmo:42043:1,2008-06-02T07:30:00Z,28.9818,-94.9186,1014.35,11111222 
TABS,ioos:station:wmo:42043:1,2008-06-02T08:00:00Z,28.9818,-94.9186,1014.15,11111222 
TABS,ioos:station:wmo:42043:1,2008-06-02T08:30:00Z,28.9818,-94.9186,1013.67,11111222 
TABS,ioos:station:wmo:42043:1,2008-06-02T09:00:00Z,28.9818,-94.9186,1013.77,11111222 
TABS,ioos:station:wmo:42043:1,2008-06-02T09:30:00Z,28.9818,-94.9186,1013.81,11111222 
TABS,ioos:station:wmo:42043:1,2008-06-02T10:00:00Z,28.9818,-94.9186,1013.71,11111222 
TABS,ioos:station:wmo:42043:1,2008-06-02T10:30:00Z,28.9818,-94.9186,1013.7,11111222 
TABS,ioos:station:wmo:42043:1,2008-06-02T11:00:00Z,28.9818,-94.9186,1013.81,11111222 
TABS,ioos:station:wmo:42043:1,2008-06-02T11:30:00Z,28.9818,-94.9186,1014.37,11111222 
TABS,ioos:station:wmo:42043:1,2008-06-02T12:00:00Z,28.9818,-94.9186,1014.56,11111222 
TABS,ioos:station:wmo:42043:1,2008-06-02T12:30:00Z,28.9818,-94.9186,1014.92,11111222 
TABS,ioos:station:wmo:42043:1,2008-06-02T13:00:00Z,28.9818,-94.9186,1014.97,11111222 
TABS,ioos:station:wmo:42043:1,2008-06-02T13:30:00Z,28.9818,-94.9186,1015.3,11111222 
TABS,ioos:station:wmo:42043:1,2008-06-02T14:00:00Z,28.9818,-94.9186,1015.47,11111222 
TABS,ioos:station:wmo:42043:1,2008-06-02T14:30:00Z,28.9818,-94.9186,1015.54,11111222 
TABS,ioos:station:wmo:42043:1,2008-06-02T15:00:00Z,28.9818,-94.9186,1015.84,11111222 
TABS,ioos:station:wmo:42043:1,2008-06-02T15:30:00Z,28.9818,-94.9186,1015.86,11111222 
TABS,ioos:station:wmo:42043:1,2008-06-02T16:00:00Z,28.9818,-94.9186,1015.71,11111222 
TABS,ioos:station:wmo:42043:1,2008-06-02T16:30:00Z,28.9818,-94.9186,1015.85,11111222 
TABS,ioos:station:wmo:42043:1,2008-06-02T17:00:00Z,28.9818,-94.9186,1015.38,11111222 
TABS,ioos:station:wmo:42043:1,2008-06-02T17:30:00Z,28.9818,-94.9186,1015.52,11111222 
TABS,ioos:station:wmo:42043:1,2008-06-02T18:00:00Z,28.9818,-94.9186,1015.26,11111222 
TABS,ioos:station:wmo:42043:1,2008-06-02T18:30:00Z,28.9818,-94.9186,1015.1,11111222 
TABS,ioos:station:wmo:42043:1,2008-06-02T19:00:00Z,28.9818,-94.9186,1014.8,11111222 
TABS,ioos:station:wmo:42043:1,2008-06-02T19:30:00Z,28.9818,-94.9186,1014.54,11111222 
TABS,ioos:station:wmo:42043:1,2008-06-02T20:00:00Z,28.9818,-94.9186,1014.47,11111222 
TABS,ioos:station:wmo:42043:1,2008-06-02T20:30:00Z,28.9818,-94.9186,1013.91,11111222 
TABS,ioos:station:wmo:42043:1,2008-06-02T21:00:00Z,28.9818,-94.9186,1013.73,11111222 
TABS,ioos:station:wmo:42043:1,2008-06-02T21:30:00Z,28.9818,-94.9186,1013.89,11111222 
TABS,ioos:station:wmo:42043:1,2008-06-02T22:00:00Z,28.9818,-94.9186,1013.87,11111222 
TABS,ioos:station:wmo:42043:1,2008-06-02T22:30:00Z,28.9818,-94.9186,1014.0,11111222 
TABS,ioos:station:wmo:42043:1,2008-06-02T23:00:00Z,28.9818,-94.9186,1013.79,11111222 
TABS,ioos:station:wmo:42043:1,2008-06-02T23:30:00Z,28.9818,-94.9186,1013.69,11111222 
TABS,ioos:station:wmo:42043:1,2008-06-03T00:00:00Z,28.9818,-94.9186,1013.49,11111222 
TABS,ioos:station:wmo:42043:1,2008-06-03T00:30:00Z,28.9818,-94.9186,1013.42,11111222 
TABS,ioos:station:wmo:42043:1,2008-06-03T01:00:00Z,28.9818,-94.9186,1013.43,11111222 
TABS,ioos:station:wmo:42043:1,2008-06-03T01:30:00Z,28.9818,-94.9186,1013.56,11111222 
TABS,ioos:station:wmo:42043:1,2008-06-03T02:00:00Z,28.9818,-94.9186,1013.3,11111222 
TABS,ioos:station:wmo:42043:1,2008-06-03T02:30:00Z,28.9818,-94.9186,1013.48,11111222 
TABS,ioos:station:wmo:42043:1,2008-06-03T03:00:00Z,28.9818,-94.9186,1013.87,11111222 
TABS,ioos:station:wmo:42043:1,2008-06-03T03:30:00Z,28.9818,-94.9186,1014.08,11111222 
TABS,ioos:station:wmo:42043:1,2008-06-03T04:00:00Z,28.9818,-94.9186,1014.08,11111222 
TABS,ioos:station:wmo:42043:1,2008-06-03T04:30:00Z,28.9818,-94.9186,1013.82,11111222 
TABS,ioos:station:wmo:42043:1,2008-06-03T05:00:00Z,28.9818,-94.9186,1013.59,11111222 
TABS,ioos:station:wmo:42043:1,2008-06-03T05:30:00Z,28.9818,-94.9186,1013.24,11111222 
TABS,ioos:station:wmo:42043:1,2008-06-03T06:00:00Z,28.9818,-94.9186,1013.09,11111222 
TABS,ioos:station:wmo:42043:1,2008-06-03T06:30:00Z,28.9818,-94.9186,1013.03,11111222 
TABS,ioos:station:wmo:42043:1,2008-06-03T07:00:00Z,28.9818,-94.9186,1012.47,11111222 
TABS,ioos:station:wmo:42043:1,2008-06-03T07:30:00Z,28.9818,-94.9186,1012.18,11111222 
TABS,ioos:station:wmo:42043:1,2008-06-03T08:00:00Z,28.9818,-94.9186,1012.06,11111222 
TABS,ioos:station:wmo:42043:1,2008-06-03T08:30:00Z,28.9818,-94.9186,1011.8,11111222 
TABS,ioos:station:wmo:42043:1,2008-06-03T09:00:00Z,28.9818,-94.9186,1011.49,11111222 
TABS,ioos:station:wmo:42043:1,2008-06-03T09:30:00Z,28.9818,-94.9186,1011.68,11111222 
TABS,ioos:station:wmo:42043:1,2008-06-03T10:00:00Z,28.9818,-94.9186,1011.49,11111222 
TABS,ioos:station:wmo:42043:1,2008-06-03T10:30:00Z,28.9818,-94.9186,1011.65,11111222 
TABS,ioos:station:wmo:42043:1,2008-06-03T11:00:00Z,28.9818,-94.9186,1011.69,11111222 
TABS,ioos:station:wmo:42043:1,2008-06-03T11:30:00Z,28.9818,-94.9186,1011.79,11111222 
TABS,ioos:station:wmo:42043:1,2008-06-03T12:00:00Z,28.9818,-94.9186,1012.21,11111222 
TABS,ioos:station:wmo:42043:1,2008-06-03T12:30:00Z,28.9818,-94.9186,1012.32,11111222 
TABS,ioos:station:wmo:42043:1,2008-06-03T13:00:00Z,28.9818,-94.9186,1012.59,11111222 
TABS,ioos:station:wmo:42043:1,2008-06-03T13:30:00Z,28.9818,-94.9186,1013.01,11111222 
TABS,ioos:station:wmo:42043:1,2008-06-03T14:00:00Z,28.9818,-94.9186,1012.74,11111222 
TABS,ioos:station:wmo:42043:1,2008-06-03T14:30:00Z,28.9818,-94.9186,1012.78,11111222 
TABS,ioos:station:wmo:42043:1,2008-06-03T15:00:00Z,28.9818,-94.9186,1013.34,11111222 
TABS,ioos:station:wmo:42043:1,2008-06-03T15:30:00Z,28.9818,-94.9186,1013.05,11111222 
TABS,ioos:station:wmo:42043:1,2008-06-03T16:00:00Z,28.9818,-94.9186,1012.74,11111222 
TABS,ioos:station:wmo:42043:1,2008-06-03T16:30:00Z,28.9818,-94.9186,1013.15,11111222 
TABS,ioos:station:wmo:42043:1,2008-06-03T17:00:00Z,28.9818,-94.9186,1012.89,11111222 
TABS,ioos:station:wmo:42043:1,2008-06-03T17:30:00Z,28.9818,-94.9186,1012.94,11111222 
TABS,ioos:station:wmo:42043:1,2008-06-03T18:00:00Z,28.9818,-94.9186,1012.72,11111222 
TABS,ioos:station:wmo:42043:1,2008-06-03T18:30:00Z,28.9818,-94.9186,1012.28,11111222 
TABS,ioos:station:wmo:42043:1,2008-06-03T19:00:00Z,28.9818,-94.9186,1012.01,11111222 
TABS,ioos:station:wmo:42043:1,2008-06-03T19:30:00Z,28.9818,-94.9186,1011.84,11111222 
TABS,ioos:station:wmo:42043:1,2008-06-03T20:00:00Z,28.9818,-94.9186,1011.57,11111222 
TABS,ioos:station:wmo:42043:1,2008-06-03T20:30:00Z,28.9818,-94.9186,1011.23,11111222 
TABS,ioos:station:wmo:42043:1,2008-06-03T21:00:00Z,28.9818,-94.9186,1011.01,11111222 
TABS,ioos:station:wmo:42043:1,2008-06-03T21:30:00Z,28.9818,-94.9186,1010.5,11111222 
TABS,ioos:station:wmo:42043:1,2008-06-03T22:00:00Z,28.9818,-94.9186,1010.27,11111222 
TABS,ioos:station:wmo:42043:1,2008-06-03T22:30:00Z,28.9818,-94.9186,1009.91,11111222 
TABS,ioos:station:wmo:42043:1,2008-06-03T23:00:00Z,28.9818,-94.9186,1009.72,11111222 
TABS,ioos:station:wmo:42043:1,2008-06-03T23:30:00Z,28.9818,-94.9186,1009.8,11111222 
TABS,ioos:station:wmo:42043:1,2008-06-04T00:00:00Z,28.9818,-94.9186,1009.34,11111222 
TABS,ioos:station:wmo:42043:1,2008-06-04T00:30:00Z,28.9818,-94.9186,1009.37,11111222 
TABS,ioos:station:wmo:42043:1,2008-06-04T01:00:00Z,28.9818,-94.9186,1009.52,11111222 
TABS,ioos:station:wmo:42043:1,2008-06-04T01:30:00Z,28.9818,-94.9186,1009.72,11111222 
TABS,ioos:station:wmo:42043:1,2008-06-04T02:00:00Z,28.9818,-94.9186,1009.6,11111222 
TABS,ioos:station:wmo:42043:1,2008-06-04T02:30:00Z,28.9818,-94.9186,1009.68,11111222 
TABS,ioos:station:wmo:42043:1,2008-06-04T03:00:00Z,28.9818,-94.9186,1009.98,11111222 
TABS,ioos:station:wmo:42043:1,2008-06-04T03:30:00Z,28.9818,-94.9186,1009.83,11111222 
TABS,ioos:station:wmo:42043:1,2008-06-04T04:00:00Z,28.9818,-94.9186,1010.12,11111222 
TABS,ioos:station:wmo:42043:1,2008-06-04T04:30:00Z,28.9818,-94.9186,1009.69,11111222 
TABS,ioos:station:wmo:42043:1,2008-06-04T05:00:00Z,28.9818,-94.9186,1009.89,11111222 
TABS,ioos:station:wmo:42043:1,2008-06-04T05:30:00Z,28.9818,-94.9186,1009.6,11111222 
TABS,ioos:station:wmo:42043:1,2008-06-04T06:00:00Z,28.9818,-94.9186,1009.07,11111222 
TABS,ioos:station:wmo:42043:1,2008-06-04T06:30:00Z,28.9818,-94.9186,1009.52,11111222 
TABS,ioos:station:wmo:42043:1,2008-06-04T07:00:00Z,28.9818,-94.9186,1008.9,11111222 
TABS,ioos:station:wmo:42043:1,2008-06-04T07:30:00Z,28.9818,-94.9186,1008.87,11111222 
TABS,ioos:station:wmo:42043:1,2008-06-04T08:00:00Z,28.9818,-94.9186,1008.55,11111222 
TABS,ioos:station:wmo:42043:1,2008-06-04T08:30:00Z,28.9818,-94.9186,1008.27,11111222 
TABS,ioos:station:wmo:42043:1,2008-06-04T09:00:00Z,28.9818,-94.9186,1008.16,11111222 
TABS,ioos:station:wmo:42043:1,2008-06-04T09:30:00Z,28.9818,-94.9186,1008.43,11111222 
TABS,ioos:station:wmo:42043:1,2008-06-04T10:00:00Z,28.9818,-94.9186,1008.35,11111222 
TABS,ioos:station:wmo:42043:1,2008-06-04T10:30:00Z,28.9818,-94.9186,1008.64,11111222 
TABS,ioos:station:wmo:42043:1,2008-06-04T11:00:00Z,28.9818,-94.9186,1008.55,11111222 
TABS,ioos:station:wmo:42043:1,2008-06-04T11:30:00Z,28.9818,-94.9186,1008.3,11111222 
TABS,ioos:station:wmo:42043:1,2008-06-04T12:00:00Z,28.9818,-94.9186,1008.65,11111222 
TABS,ioos:station:wmo:42043:1,2008-06-04T12:30:00Z,28.9818,-94.9186,1008.89,11111222 
TABS,ioos:station:wmo:42043:1,2008-06-04T13:00:00Z,28.9818,-94.9186,1009.05,11111222 
TABS,ioos:station:wmo:42043:1,2008-06-04T13:30:00Z,28.9818,-94.9186,1009.34,11111222 
TABS,ioos:station:wmo:42043:1,2008-06-04T14:00:00Z,28.9818,-94.9186,1009.25,11111222 
TABS,ioos:station:wmo:42043:1,2008-06-04T14:30:00Z,28.9818,-94.9186,1009.78,11111222 
TABS,ioos:station:wmo:42043:1,2008-06-04T15:00:00Z,28.9818,-94.9186,1009.3,11111222 
TABS,ioos:station:wmo:42043:1,2008-06-04T15:30:00Z,28.9818,-94.9186,1009.71,11111222 
TABS,ioos:station:wmo:42043:1,2008-06-04T16:00:00Z,28.9818,-94.9186,1009.55,11111222 
TABS,ioos:station:wmo:42043:1,2008-06-04T16:30:00Z,28.9818,-94.9186,1009.59,11111222 
TABS,ioos:station:wmo:42043:1,2008-06-04T17:00:00Z,28.9818,-94.9186,1009.44,11111222 
TABS,ioos:station:wmo:42043:1,2008-06-04T17:30:00Z,28.9818,-94.9186,1009.2,11111222 
TABS,ioos:station:wmo:42043:1,2008-06-04T18:00:00Z,28.9818,-94.9186,1009.69,11111222 
TABS,ioos:station:wmo:42043:1,2008-06-04T18:30:00Z,28.9818,-94.9186,1009.44,11111222 
TABS,ioos:station:wmo:42043:1,2008-06-04T19:00:00Z,28.9818,-94.9186,1008.87,11111222 
TABS,ioos:station:wmo:42043:1,2008-06-04T19:30:00Z,28.9818,-94.9186,1008.95,11111222 
TABS,ioos:station:wmo:42043:1,2008-06-04T20:00:00Z,28.9818,-94.9186,1008.7,11111222 
TABS,ioos:station:wmo:42043:1,2008-06-04T20:30:00Z,28.9818,-94.9186,1008.42,11111222 
TABS,ioos:station:wmo:42043:1,2008-06-04T21:00:00Z,28.9818,-94.9186,1008.34,11111222 
TABS,ioos:station:wmo:42043:1,2008-06-04T21:30:00Z,28.9818,-94.9186,1007.79,11111222 
TABS,ioos:station:wmo:42043:1,2008-06-04T22:00:00Z,28.9818,-94.9186,1007.93,11111222 
TABS,ioos:station:wmo:42043:1,2008-06-04T22:30:00Z,28.9818,-94.9186,1007.87,11111222 
TABS,ioos:station:wmo:42043:1,2008-06-04T23:00:00Z,28.9818,-94.9186,1007.59,11111222 
TABS,ioos:station:wmo:42043:1,2008-06-04T23:30:00Z,28.9818,-94.9186,1007.91,11111222 
TABS,ioos:station:wmo:42043:1,2008-06-05T00:00:00Z,28.9818,-94.9186,1007.57,11111222 
TABS,ioos:station:wmo:42043:1,2008-06-05T00:30:00Z,28.9818,-94.9186,1007.38,11111222 
TABS,ioos:station:wmo:42043:1,2008-06-05T01:00:00Z,28.9818,-94.9186,1007.58,11111222 
TABS,ioos:station:wmo:42043:1,2008-06-05T01:30:00Z,28.9818,-94.9186,1007.63,11111222 
TABS,ioos:station:wmo:42043:1,2008-06-05T02:00:00Z,28.9818,-94.9186,1007.59,11111222 
TABS,ioos:station:wmo:42043:1,2008-06-05T02:30:00Z,28.9818,-94.9186,1007.83,11111222 
TABS,ioos:station:wmo:42043:1,2008-06-05T03:00:00Z,28.9818,-94.9186,1008.06,11111222 
TABS,ioos:station:wmo:42043:1,2008-06-05T03:30:00Z,28.9818,-94.9186,1008.65,11111222 
TABS,ioos:station:wmo:42043:1,2008-06-05T04:00:00Z,28.9818,-94.9186,1008.07,11111222 
TABS,ioos:station:wmo:42043:1,2008-06-05T04:30:00Z,28.9818,-94.9186,1008.47,11111222 
TABS,ioos:station:wmo:42043:1,2008-06-05T05:00:00Z,28.9818,-94.9186,1008.18,11111222 
TABS,ioos:station:wmo:42043:1,2008-06-05T05:30:00Z,28.9818,-94.9186,1007.99,11111222 
TABS,ioos:station:wmo:42043:1,2008-06-05T06:00:00Z,28.9818,-94.9186,1007.67,11111222 
TABS,ioos:station:wmo:42043:1,2008-06-05T06:30:00Z,28.9818,-94.9186,1006.93,11111222 
TABS,ioos:station:wmo:42043:1,2008-06-05T07:00:00Z,28.9818,-94.9186,1007.11,11111222 
TABS,ioos:station:wmo:42043:1,2008-06-05T07:30:00Z,28.9818,-94.9186,1006.99,11111222 
TABS,ioos:station:wmo:42043:1,2008-06-05T08:00:00Z,28.9818,-94.9186,1007.13,11111222 
TABS,ioos:station:wmo:42043:1,2008-06-05T08:30:00Z,28.9818,-94.9186,1006.93,11111222 
TABS,ioos:station:wmo:42043:1,2008-06-05T09:00:00Z,28.9818,-94.9186,1007.11,11111222 
TABS,ioos:station:wmo:42043:1,2008-06-05T09:30:00Z,28.9818,-94.9186,1007.13,11111222 
TABS,ioos:station:wmo:42043:1,2008-06-05T10:00:00Z,28.9818,-94.9186,1007.27,11111222 
TABS,ioos:station:wmo:42043:1,2008-06-05T10:30:00Z,28.9818,-94.9186,1007.41,11111222 
TABS,ioos:station:wmo:42043:1,2008-06-05T11:00:00Z,28.9818,-94.9186,1007.67,11111222 
TABS,ioos:station:wmo:42043:1,2008-06-05T11:30:00Z,28.9818,-94.9186,1007.85,11111222 
TABS,ioos:station:wmo:42043:1,2008-06-05T12:00:00Z,28.9818,-94.9186,1008.06,11111222 
TABS,ioos:station:wmo:42043:1,2008-06-05T12:30:00Z,28.9818,-94.9186,1008.25,11111222 
TABS,ioos:station:wmo:42043:1,2008-06-05T13:00:00Z,28.9818,-94.9186,1008.7,11111222 
TABS,ioos:station:wmo:42043:1,2008-06-05T13:30:00Z,28.9818,-94.9186,1008.93,11111222 
TABS,ioos:station:wmo:42043:1,2008-06-05T14:00:00Z,28.9818,-94.9186,1009.05,11111222 
TABS,ioos:station:wmo:42043:1,2008-06-05T14:30:00Z,28.9818,-94.9186,1009.55,11111222 
TABS,ioos:station:wmo:42043:1,2008-06-05T15:00:00Z,28.9818,-94.9186,1009.57,11111222 
TABS,ioos:station:wmo:42043:1,2008-06-05T15:30:00Z,28.9818,-94.9186,1010.03,11111222 
TABS,ioos:station:wmo:42043:1,2008-06-05T16:00:00Z,28.9818,-94.9186,1010.23,11111222 
TABS,ioos:station:wmo:42043:1,2008-06-05T16:30:00Z,28.9818,-94.9186,1010.04,11111222 
TABS,ioos:station:wmo:42043:1,2008-06-05T17:00:00Z,28.9818,-94.9186,1010.12,11111222 
TABS,ioos:station:wmo:42043:1,2008-06-05T17:30:00Z,28.9818,-94.9186,1010.24,11111222 
TABS,ioos:station:wmo:42043:1,2008-06-05T18:00:00Z,28.9818,-94.9186,1010.32,11111222 
TABS,ioos:station:wmo:42043:1,2008-06-05T18:30:00Z,28.9818,-94.9186,1010.01,11111222 
TABS,ioos:station:wmo:42043:1,2008-06-05T19:00:00Z,28.9818,-94.9186,1009.86,11111222 
TABS,ioos:station:wmo:42043:1,2008-06-05T19:30:00Z,28.9818,-94.9186,1009.74,11111222 
TABS,ioos:station:wmo:42043:1,2008-06-05T20:00:00Z,28.9818,-94.9186,1009.91,11111222 
TABS,ioos:station:wmo:42043:1,2008-06-05T20:30:00Z,28.9818,-94.9186,1009.72,11111222 
TABS,ioos:station:wmo:42043:1,2008-06-05T21:00:00Z,28.9818,-94.9186,1009.45,11111222 
TABS,ioos:station:wmo:42043:1,2008-06-05T21:30:00Z,28.9818,-94.9186,1009.2,11111222 
TABS,ioos:station:wmo:42043:1,2008-06-05T22:00:00Z,28.9818,-94.9186,1009.39,11111222 
TABS,ioos:station:wmo:42043:1,2008-06-05T22:30:00Z,28.9818,-94.9186,1009.21,11111222 
TABS,ioos:station:wmo:42043:1,2008-06-05T23:00:00Z,28.9818,-94.9186,1009.04,11111222 
TABS,ioos:station:wmo:42043:1,2008-06-05T23:30:00Z,28.9818,-94.9186,1009.2,11111222 
TABS,ioos:station:wmo:42043:1,2008-06-06T00:00:00Z,28.9818,-94.9186,1009.26,11111222 
TABS,ioos:station:wmo:42043:1,2008-06-06T00:30:00Z,28.9818,-94.9186,1009.37,11111222 
TABS,ioos:station:wmo:42043:1,2008-06-06T01:00:00Z,28.9818,-94.9186,1009.27,11111222 
TABS,ioos:station:wmo:42043:1,2008-06-06T01:30:00Z,28.9818,-94.9186,1009.48,11111222 
TABS,ioos:station:wmo:42043:1,2008-06-06T02:00:00Z,28.9818,-94.9186,1009.38,11111222 
TABS,ioos:station:wmo:42043:1,2008-06-06T02:30:00Z,28.9818,-94.9186,1009.77,11111222 
TABS,ioos:station:wmo:42043:1,2008-06-06T03:00:00Z,28.9818,-94.9186,1009.87,11111222 
TABS,ioos:station:wmo:42043:1,2008-06-06T03:30:00Z,28.9818,-94.9186,1010.21,11111222 
TABS,ioos:station:wmo:42043:1,2008-06-06T04:00:00Z,28.9818,-94.9186,1010.36,11111222 
TABS,ioos:station:wmo:42043:1,2008-06-06T04:30:00Z,28.9818,-94.9186,1010.19,11111222 
TABS,ioos:station:wmo:42043:1,2008-06-06T05:00:00Z,28.9818,-94.9186,1010.32,11111222 
TABS,ioos:station:wmo:42043:1,2008-06-06T05:30:00Z,28.9818,-94.9186,1009.93,11111222 
TABS,ioos:station:wmo:42043:1,2008-06-06T06:00:00Z,28.9818,-94.9186,1010.02,11111222 
TABS,ioos:station:wmo:42043:1,2008-06-06T06:30:00Z,28.9818,-94.9186,1009.8,11111222 
TABS,ioos:station:wmo:42043:1,2008-06-06T07:00:00Z,28.9818,-94.9186,1009.48,11111222 
TABS,ioos:station:wmo:42043:1,2008-06-06T07:30:00Z,28.9818,-94.9186,1009.48,11111222 
TABS,ioos:station:wmo:42043:1,2008-06-06T08:00:00Z,28.9818,-94.9186,1009.34,11111222 
TABS,ioos:station:wmo:42043:1,2008-06-06T08:30:00Z,28.9818,-94.9186,1009.49,11111222 
TABS,ioos:station:wmo:42043:1,2008-06-06T09:00:00Z,28.9818,-94.9186,1010.19,11111222 
TABS,ioos:station:wmo:42043:1,2008-06-06T09:30:00Z,28.9818,-94.9186,1010.5,11111222 
TABS,ioos:station:wmo:42043:1,2008-06-06T10:00:00Z,28.9818,-94.9186,1010.78,11111222 
TABS,ioos:station:wmo:42043:1,2008-06-06T10:30:00Z,28.9818,-94.9186,1011.17,11111222 
TABS,ioos:station:wmo:42043:1,2008-06-06T11:00:00Z,28.9818,-94.9186,1011.78,11111222 
TABS,ioos:station:wmo:42043:1,2008-06-06T11:30:00Z,28.9818,-94.9186,1012.06,11111222 
TABS,ioos:station:wmo:42043:1,2008-06-06T12:00:00Z,28.9818,-94.9186,1012.44,11111222 
TABS,ioos:station:wmo:42043:1,2008-06-06T12:30:00Z,28.9818,-94.9186,1012.41,11111222 
TABS,ioos:station:wmo:42043:1,2008-06-06T13:00:00Z,28.9818,-94.9186,1012.86,11111222 
TABS,ioos:station:wmo:42043:1,2008-06-06T13:30:00Z,28.9818,-94.9186,1013.68,11111222 
TABS,ioos:station:wmo:42043:1,2008-06-06T14:00:00Z,28.9818,-94.9186,1014.16,11111222 
TABS,ioos:station:wmo:42043:1,2008-06-06T14:30:00Z,28.9818,-94.9186,1013.89,11111222 
TABS,ioos:station:wmo:42043:1,2008-06-06T15:00:00Z,28.9818,-94.9186,1014.11,11111222 
TABS,ioos:station:wmo:42043:1,2008-06-06T15:30:00Z,28.9818,-94.9186,1014.06,11111222 
TABS,ioos:station:wmo:42043:1,2008-06-06T16:00:00Z,28.9818,-94.9186,1014.33,11111222 
TABS,ioos:station:wmo:42043:1,2008-06-06T16:30:00Z,28.9818,-94.9186,1014.46,11111222 
TABS,ioos:station:wmo:42043:1,2008-06-06T17:00:00Z,28.9818,-94.9186,1014.5,11111222 
TABS,ioos:station:wmo:42043:1,2008-06-06T17:30:00Z,28.9818,-94.9186,1014.62,11111222 
TABS,ioos:station:wmo:42043:1,2008-06-06T18:00:00Z,28.9818,-94.9186,1014.54,11111222 
TABS,ioos:station:wmo:42043:1,2008-06-06T18:30:00Z,28.9818,-94.9186,1014.47,11111222 